Regional Weather Roundup
Issued by NWS

Home | Current Version | Previous Version | Graphics & Text | Print | Product List | Glossary On
Versions: 1 2 3 4 5 6 7 8 9 10 11 12 13 14 15 16 17 18 19 20 21 22 23 24 25 26 27 28 29 30 31 32 33 34 35 36 37 38 39 40 41 42 43 44 45 46 47 48 49 50
000
ASUS43 KIND 310659
RWRIN

WEATHER ROUNDUP FOR INDIANA
NATIONAL WEATHER SERVICE INDIANAPOLIS IN
300 AM EDT FRI OCT 31 2014

NOTE: "FAIR" INDICATES FEW OR NO CLOUDS BELOW 12,000 FEET WITH NO
SIGNIFICANT WEATHER AND/OR OBSTRUCTIONS TO VISIBILITY.

* - STATION DOES NOT REPORT WEATHER SUCH AS PRECIPITATION OR FOG.

+ - STATION NOT QUALITY CONTROLLED BY THE NATIONAL WEATHER SERVICE.
    USE DATA WITH CAUTION...ESPECIALLY DEWPOINT AND RELATIVE
    HUMIDITY OBSERVATIONS.

INZ001>003-010>013-019-020-310800-
NORTHWEST INDIANA

CITY           SKY/WX    TMP DP  RH WIND       PRES   REMARKS
VALPARAISO     NOT AVBL

$$

LMZ046-743>745-310800-
SOUTHERN LAKE MICHIGAN

STATION/POSITION TIME  TEMP WIND        PRES
                       AIR  DIR/SP/G
                 (UTC) (F)  (DEG/KT/KT) (MB)
MICHIGAN CITY    0600   50  270/ 18/ 21   N/A

$$

INZ004-005-014>016-021>024-310800-
NORTH CENTRAL INDIANA

CITY           SKY/WX    TMP DP  RH WIND       PRES   REMARKS
GOSHEN         CLOUDY    45  37  73 SW9       29.98F
SOUTH BEND     CLOUDY    44  36  73 SW7       29.99F

$$

INZ006>009-017-018-025>027-310800-
NORTHEAST INDIANA

CITY           SKY/WX    TMP DP  RH WIND       PRES   REMARKS
ANGOLA *+      CLOUDY    43  36  75 SW3       29.98F
FORT WAYNE     CLOUDY    43  38  82 SW5       30.01F

$$

INZ028-029-035-036-043>045-051>053-310800-
WEST CENTRAL INDIANA

CITY           SKY/WX    TMP DP  RH WIND       PRES   REMARKS
GREENCASTLE +  MOCLDY    45  39  81 CALM      30.03F
LAFAYETTE      CLOUDY    42  39  89 W3        30.03F
TERRE HAUTE    PTCLDY    46  44  93 CALM      30.03F

$$

INZ030>032-037>040-046>048-054>057-064-065-310800-
CENTRAL INDIANA

CITY           SKY/WX    TMP DP  RH WIND       PRES   REMARKS
INDIANAPOLIS   CLOUDY    45  38  76 W5        30.01F
-EAGLE CREEK   CLOUDY    46  38  73 NW6       30.01F
KOKOMO *+      MOCLDY    45  36  70 W6        30.02F
MT COMFORT *+  CLOUDY    45  36  70 CALM      30.02F
SHELBYVILLE    CLOUDY    47  41  80 CALM      30.01F

$$

INZ033-034-041-042-049-050-058-059-310800-
EAST CENTRAL INDIANA

CITY           SKY/WX    TMP DP  RH WIND       PRES   REMARKS
MUNCIE         CLOUDY    44  36  73 SW6       30.01F

$$

INZ060-061-067>069-081>083-085>088-310800-
SOUTHWEST INDIANA

CITY           SKY/WX    TMP DP  RH WIND       PRES   REMARKS
EVANSVILLE     LGT RAIN  50  43  77 NE6       30.03F
HUNTINGBURG *+ CLOUDY    46  39  76 NE7       30.03F

$$

INZ062-063-066-070>080-084-089>092-310800-
SOUTH CENTRAL AND SOUTHEAST INDIANA

CITY           SKY/WX    TMP DP  RH WIND       PRES   REMARKS
BLOOMINGTON    CLOUDY    46  43  89 CALM      30.02F

$$




USA.gov is the U.S. government's official web portal to all federal, state and local government web resources and services.